Location: Gandikunta
(16.3784°N, 80.8378°E)
Time: 04:24:09
(UTC+00:00)

CZ-4B R/B - Pass Details

Date: 19 May 2025
Orbit: 807 x 881 km, 98.9° (Epoch: 13 June)

Event Time Altitude Azimuth Distance (km) Brightness Sun altitude
Exits shadow 14:14:47 22° 86° (E) 1,809 4.4 -16.9°
Maximum altitude 14:15:38 22° 73° (ENE) 1,770 4.5 -17.1°
Drops below altitude 10° 14:19:48 10° 23° (NNE) 2,476 5.7 -18.0°
Sets 14:22:37 0° 9° (N) 3,399 6.6 -18.6°
